Printer-friendly version

IAU Minor Planet Center

Minor Planet Center

MPEC 2004-H56 : COMET P/2004 DO29 (SPACEWATCH-LINEAR)

The following Minor Planet Electronic Circular may be linked-to from your own Web pages, but must not otherwise be redistributed electronically.


Read MPEC 2004-H55 Read MPEC 2004-H57


M.P.E.C. 2004-H56                                Issued 2004 Apr. 23, 15:55 UT

     The Minor Planet Electronic Circulars contain information on unusual
         minor planets and routine data on comets.  They are published
   on behalf of Commission 20 of the International Astronomical Union by the
          Minor Planet Center, Smithsonian Astrophysical Observatory,
                          Cambridge, MA 02138, U.S.A.

         Supported in part by the Steven and Michele Kirsch Foundation
             Prepared using the Tamkin Foundation Computer Network

                              MPC@CFA.HARVARD.EDU
          URL http://cfa-www.harvard.edu/iau/mpc.html  ISSN 1523-6714

                     COMET P/2004 DO29 (SPACEWATCH-LINEAR)

Observations:
    PK04D29O  C2004 04 12.92437 10 27 46.02 +14 52 25.9                 EH056213
    PK04D29O  C2004 04 12.92728 10 27 46.01 +14 52 27.0                 EH056213
    PK04D29O  C2004 04 14.88389 10 27 36.94 +14 56 18.8          19.1 T EH056215
    PK04D29O  C2004 04 20.54817 10 27 29.21 +15 05 06.7          19.5 T EH056360
    PK04D29O  C2004 04 20.55405 10 27 29.22 +15 05 07.0                 EH056360
    PK04D29O  C2004 04 20.56351 10 27 29.21 +15 05 07.7                 EH056360

Observer details:
213 Observatorio Montcabre.  Observer R. Naves.  Measurer M. Campas.  0.30-m
    f/5.5 Schmidt-Cassegrain.
215 Buchloe.  Observer W. Hasubick.  0.44-m f/4.6 reflector + CCD.
360 Kuma Kogen.  Observer A. Nakamura.  0.60-m f/5.8 Ritchey-Chretien + CCD.

Orbital elements:
    P/2004 DO29 (Spacewatch-LINEAR)
T 2004 Oct.  9.9910 TT                                  MPC
q   4.098610             (2000.0)            P               Q
n   0.0485351      Peri.   41.5705      -0.9751386      +0.1768146
a   7.443297       Node   147.8722      -0.2002889      -0.9611615
e   0.449356       Incl.   14.5464      +0.0948108      -0.2119084
P  20.3
From 67 observations 2004 Feb. 11-Apr. 20.

Brian G. Marsden             (C) Copyright 2004 MPC           M.P.E.C. 2004-H56

Read MPEC 2004-H55 Read MPEC 2004-H57


Our Web policy. Index to the CBAT/MPC/ICQ pages.


Valid HTML 4.01!